Regional Weather Roundup
Issued by NWS

Home | Current Version | Previous Version | Graphics & Text | Print | Product List | Glossary On
Versions: 1 2 3 4 5 6 7 8 9 10 11 12 13 14 15 16 17 18 19 20 21 22 23 24 25 26 27 28 29 30 31 32 33 34 35 36 37 38 39 40 41 42 43 44 45 46 47 48 49 50
952
ASUS43 KMPX 202310
RWRMN
WEATHER ROUNDUP FOR MINNESOTA
NATIONAL WEATHER SERVICE TWIN CITIES/CHANHASSEN MN
500 PM CST MON FEB 20 2017


NOTE: "FAIR" INDICATES FEW OR NO CLOUDS BELOW 12,000 FEET WITH NO
SIGNIFICANT WEATHER AND/OR OBSTRUCTIONS TO VISIBILITY. N/A MEANS
CURRENT SKY AND/OR WEATHER CONDITIONS ARE NOT AVAILABLE.

MNZ060>063-068>070-210000-
   Twin Cities Metro

CITY           SKY/WX    TMP DP  RH WIND       PRES   REMARKS
TWIN CITIES    LGT RAIN  53  51  93 S6        29.68F
ST PAUL        LGT RAIN  51  51 100 SE6       29.69F FOG
CRYSTAL        LGT RAIN  68  49  50 S8        29.66F
BLAINE         LGT RAIN  54  54 100 S12       29.68R
LAKEVILLE      RAIN      50  50 100 S5        29.69F
EDEN PRAIRIE   LGT RAIN  52  50  93 SE10      29.63F FOG
SOUTH ST PAUL  LGT RAIN  52  52  99 S8        29.69S
LAKE ELMO      DRIZZLE   52  52 100 S8        29.70S
$$
MNZ001>005-007-008-013>017-022>024-027-028-210000-
   Northwest Minnesota

CITY           SKY/WX    TMP DP  RH WIND       PRES   REMARKS
BEMIDJI        LGT RAIN  44  44 100 SW5       29.56S VSB 1/4
HALLOCK        CLOUDY    36  34  93 W6        29.62R
ROSEAU         RAIN      36  30  80 W10       29.58R
WARROAD        DRIZZLE   37  34  87 W12G18    29.55R
THIEF RVR FALL LGT RAIN  34  34 100 NW12      29.63S FOG     WCI  25
CROOKSTON      MIX PCPN  36  36 100 NW8       29.63F
FOSSTON        DRIZZLE   34  34 100 W15       29.62R WCI  24
DETROIT LAKES  LGT RAIN  36  36 100 NW16G23   29.65R
MOORHEAD       CLOUDY    37  36  93 NW6       29.67F
PARK RAPIDS    LGT RAIN  42  40  92 W5        29.56F VSB<1/4
MAHNOMEN       DRIZZLE   35  35  99 NW15      29.63R WCI  25
$$
MNZ006-009>011-018-025>026-210000-
   North Central Minnesota

CITY           SKY/WX    TMP DP  RH WIND       PRES   REMARKS
BAUDETTE       FOG       41  40  96 S8        29.53R VSB 1/2
FLAG ISLAND    RAIN      36  34  93 SE3       29.51F VSB 1/4
INTL FALLS     LGT RAIN  43  41  93 S7        29.56F FOG
WASKISH        DRIZZLE   45  45 100 S6        29.55S
BIG FORK       RAIN      43  41  93 S8        29.58
LONGVILLE      DRIZZLE   45  45 100 S5        29.56F
GRAND RAPIDS   LGT RAIN  42  42 100 S14       29.61F FOG
CRANE LAKE     LGT RAIN  43  43 100 CALM      29.61R
ORR            LGT RAIN  43  39  87 S6        29.58S
COOK           RAIN      43  43 100 S3        29.60F
WALKER         LGT RAIN  44  44  99 CALM      29.55F VSB 1/4
$$
MNZ012-019>021-037-210000-
   Northeast Minnesota

CITY           SKY/WX    TMP DP  RH WIND       PRES   REMARKS
DULUTH         LGT RAIN  41  41 100 SE7       29.64F FOG
ELY            LGT RAIN  39  39 100 SE9       29.61F
HIBBING        LGT RAIN  40  40 100 S5        29.62S FOG
EVELETH        RAIN      42  41  96 S6        29.63F
DULUTH HARBOR  RAIN      36  36 100 CALM      29.67F
TWO HARBORS    LGT RAIN  43  37  81 NE3       29.64F
SILVER BAY     LGT RAIN  39  39 100 NE8       29.64F
GRAND MARAIS     N/A     42  39  89 NE15G22   29.70F
G MARAIS ARPRT RAIN      37  36  93 E10G17    29.68F
$$
MNZ029>031-032-039>041-046>048-054>057-064-210000-
   West Central Minnesota

CITY           SKY/WX    TMP DP  RH WIND       PRES   REMARKS
FERGUS FALLS   LGT RAIN  37  37 100 NW18      29.69R
WHEATON        MOCLDY    41  37  87 W14G20    29.70S
MORRIS         LGT RAIN  39  39 100 NW20      29.65R
ALEXANDRIA     LGT RAIN  42  41  96 NW25G32   29.62R FOG
ELBOW LAKE     DRIZZLE   38  38 100 NW17G23   29.67R
WADENA         DRZL/FOG  46  46 100 SW8       29.57S VSB 1/4
GLENWOOD       DRZL/FOG  52  52 100 W15G23    29.60S VSB 1/4
APPLETON       DRIZZLE   43  39  87 NW15      29.66R
BENSON         CLOUDY    45  39  81 N26G33    29.66R HAZE
ORTONVILLE     PTCLDY    43  41  93 NW10G17   29.68R
WILLMAR        MOCLDY    54  54 100 SW5       29.62R FOG
$$
MNZ033>034-036-042>043-049>051-058-059-210000-
   Central Minnesota

CITY           SKY/WX    TMP DP  RH WIND       PRES   REMARKS
ST CLOUD       FOG       49  49 100 SE8       29.59F VSB 1/2
SAUK CENTRE    FOG       49  49 100 S8        29.59F VSB<1/4
PAYNESVILLE    CLOUDY    52  52 100 S8        29.60F FOG
AITKIN         MIX PCPN  48  43  81 SE6       29.60F
PINE RIVER     DRZL/FOG  45  45 100 S6        29.62R VSB 3/4
BRAINERD       LGT RAIN  46  46 100 SE9       29.58F FOG
STAPLES        DRIZZLE   46  46 100 S7        29.57F
LONG PRAIRIE   FOG       46  46 100 SE5       29.59S VSB<1/4
LITTLE FALLS   CLOUDY    46  45  93 CALM      29.60R FOG
LITCHFIELD     FOG       54  54 100 S3        29.62S VSB 1/2
BUFFALO        CLOUDY    51  50  95 SE6       29.61F FOG
MAPLE LAKE     FOG       50  49  99 SE8       29.61F VSB<1/4
HUTCHINSON     CLOUDY    53  53 100 S7        29.64F FOG
$$
MNZ037-044-045-052-053-210000-
   East Central Minnesota

CITY           SKY/WX    TMP DP  RH WIND       PRES   REMARKS
PRINCETON      LGT RAIN  52  50  93 SE6       29.63F
MORA           LGT RAIN  41  41 100 SE3       29.67S VSB 3/4
CAMBRIDGE      RAIN      52  48  87 S7        29.64F
RUSH CITY      RAIN      48  48 100 S6        29.67S
MOOSE LAKE     RAIN      37  36  93 CALM      29.64S VSB 1/4
HINCKLEY       RAIN      46  46 100 S7        29.66S
CLOQUET        RAIN      37  36  93 CALM      29.65S
MCGREGOR       CLOUDY    43  43 100 SE7       29.63F
$$
MNZ071>073-080-081-089-090-097-098-210000-
   Southwest Minnesota

CITY           SKY/WX    TMP DP  RH WIND       PRES   REMARKS
MONTEVIDEO     CLOUDY    46  46 100 N14G25    29.68R FOG
GRANITE FALLS  CLOUDY    54  51  89 W29G37    29.67R
CANBY          PTCLDY    51  43  75 NW18G26   29.69R
MARSHALL       MOCLDY    49  45  86 W20G26    29.66R
REDWOOD FALLS  MOCLDY    54  51  90 SW9       29.62F FOG
OLIVIA         CLOUDY    54  52  94 SW9       29.61F FOG
PIPESTONE      CLOUDY    52  41  66 NW21      29.71S
WINDOM         MOCLDY    52  48  87 SW20      29.68R
WORTHINGTON    CLOUDY    50  46  87 W20G25    29.72R
JACKSON        MOCLDY    50  45  81 SW13      29.69R
TRACY          CLOUDY    51  48  90 W13G20    29.67R
SLAYTON        CLOUDY    49  45  88 W21G30    29.70R
$$
MNZ065>067-074>077-082>085-091>093-210000-
   South Central Minnesota

CITY           SKY/WX    TMP DP  RH WIND       PRES   REMARKS
MANKATO          N/A     53  52  96 S10       29.65F FOG
NEW ULM        CLOUDY    54  52  94 S6        29.64R FOG
ST JAMES       CLOUDY    54  54 100 S9        29.67R FOG
FAIRMONT       CLOUDY    55  53  93 S12       29.68F FOG
GLENCOE        CLOUDY    54  54 100 S5        29.62F FOG
FARIBAULT      RAIN      52  52 100 SE5       29.70F
OWATONNA       DRIZZLE   54  52  94 S12       29.70F
WASECA         RAIN      52  50  93 S13       29.70F
ALBERT LEA     CLOUDY    54  54 100 S8        29.72S FOG
$$
MNZ078>079-086>088-094>096-210000-
   Southeast Minnesota

CITY           SKY/WX    TMP DP  RH WIND       PRES   REMARKS
ROCHESTER      LGT RAIN  50  50 100 S13       29.75R FOG
RED WING       LGT RAIN  54  50  87 SW6G17    29.71R
STANTON        LGT RAIN  54  51  92 S8        29.70R
DODGE CENTER   LGT RAIN  52  52 100 S13       29.74R
WINONA         RAIN      54  52  94 S6        29.75R
AUSTIN         LGT RAIN  54  52  94 SW8       29.75R
PRESTON        LGT RAIN  52  50  94 S15       29.76R
$$
ABBREVIATIONS USED IN REMARKS
   TC - TEMPERATURES IN CELSIUS
  WCI - WIND CHILL INDEX
   HX - HEAT INDEX
  VSB - VISIBILITY
$$




USA.gov is the U.S. government's official web portal to all federal, state and local government web resources and services.